This is the latest recevied weather packets stored in our database for station/object N0KTA-2. If no packets are shown the sender has not sent any weather packets the latest 10 day(s).
| Time | Temp. | Humidity | Pressure | Rain* | Wind** | Luminosity | Snow |
|---|---|---|---|---|---|---|---|
| 1777822764 | 19.44° C | 51% | 1011.3 hPa | 0 mm | - | - | - |
| 1777822165 | 18.89° C | 53% | 1011.4 hPa | 0 mm | - | - | - |
| 1777821564 | 18.89° C | 54% | 1011.7 hPa | 0 mm | - | - | - |
| 1777820965 | 18.33° C | 56% | 1011.8 hPa | 0 mm | - | - | - |
| 1777820364 | 17.78° C | 58% | 1011.8 hPa | 0 mm | - | - | - |
| 1777819765 | 17.22° C | 58% | 1011.9 hPa | 0 mm | - | - | - |
| 1777819164 | 16.67° C | 61% | 1012 hPa | 0 mm | - | - | - |
| 1777818565 | 16.11° C | 60% | 1012 hPa | 0 mm | - | - | - |
| 1777817964 | 16.11° C | 62% | 1012.1 hPa | 0 mm | - | - | - |
| 1777817364 | 15.56° C | 64% | 1012.4 hPa | 0 mm | - | - | - |
| 1777816765 | 15° C | 65% | 1012.4 hPa | 0 mm | - | - | - |
| 1777816164 | 13.89° C | 67% | 1012.5 hPa | 0 mm | - | - | - |
| 1777815564 | 13.33° C | 69% | 1012.5 hPa | 0 mm | - | - | - |
| 1777814965 | 12.78° C | 70% | 1012.5 hPa | 0 mm | - | - | - |
| 1777814365 | 12.22° C | 70% | 1012.5 hPa | 0 mm | - | - | - |
| 1777813765 | 11.67° C | 70% | 1012.6 hPa | 0 mm | - | - | - |
| 1777813164 | 11.11° C | 71% | 1012.3 hPa | 0 mm | - | - | - |
| 1777812565 | 10.56° C | 71% | 1012.4 hPa | 0 mm | - | - | - |
| 1777811964 | 10° C | 72% | 1012.4 hPa | 0 mm | - | - | - |
| 1777811365 | 9.44° C | 73% | 1012.4 hPa | 0 mm | - | - | - |
| 1777810764 | 9.44° C | 74% | 1012.4 hPa | 0 mm | - | - | - |
| 1777810165 | 8.89° C | 73% | 1012.4 hPa | 0 mm | - | - | - |
| 1777809564 | 8.89° C | 72% | 1012.2 hPa | 0 mm | - | - | - |
| 1777808965 | 8.89° C | 72% | 1012.3 hPa | 0 mm | - | - | - |
| 1777808364 | 9.44° C | 70% | 1012.2 hPa | 0 mm | - | - | - |
* Rain latest hour (hover to see other rain measurements)
** Current wind speed in m/s (hover to see current wind gust speed)